This is the latest recevied weather packets stored in our database for station/object K1JO. If no packets are shown the sender has not sent any weather packets the latest 10 day(s).
| Time | Temp. | Humidity | Pressure | Rain* | Wind** | Luminosity | Snow |
|---|---|---|---|---|---|---|---|
| 1777672195 | 13.89° C | 54% | 1003.2 hPa | 0 mm | - | 152 W/m² | - |
| 1777671890 | 13.33° C | 54% | 1003.2 hPa | 0 mm | - | 194 W/m² | - |
| 1777671586 | 12.78° C | 55% | 1003.3 hPa | 0 mm | - | 120 W/m² | - |
| 1777671283 | 13.33° C | 58% | 1003.2 hPa | 0 mm | - | 100 W/m² | - |
| 1777670978 | 13.33° C | 57% | 1003.1 hPa | 0 mm | - | 109 W/m² | - |
| 1777670676 | 13.33° C | 57% | 1003.1 hPa | 0 mm | - | 78 W/m² | - |
| 1777670372 | 13.89° C | 55% | 1003.1 hPa | 0 mm | - | 93 W/m² | - |
| 1777670070 | 13.89° C | 54% | 1003 hPa | 0 mm | - | 95 W/m² | - |
| 1777669767 | 13.89° C | 54% | 1003 hPa | 0 mm | - | 108 W/m² | - |
| 1777669464 | 14.44° C | 57% | 1002.9 hPa | 0 mm | - | 102 W/m² | - |
| 1777669160 | 15.56° C | 49% | 1002.8 hPa | 0 mm | - | 133 W/m² | - |
| 1777668857 | 15.56° C | 49% | 1002.8 hPa | 0 mm | - | 378 W/m² | - |
| 1777668555 | 16.11° C | 47% | 1002.6 hPa | 0 mm | - | 408 W/m² | - |
| 1777668250 | 16.11° C | 47% | 1002.7 hPa | 0 mm | - | 433 W/m² | - |
| 1777667946 | 16.11° C | 50% | 1002.3 hPa | 0 mm | - | 434 W/m² | - |
| 1777667644 | 16.11° C | 51% | 1002.6 hPa | 0 mm | - | 469 W/m² | - |
| 1777667341 | 15.56° C | 57% | 1002.3 hPa | 0 mm | - | 496 W/m² | - |
| 1777667038 | 14.44° C | 52% | 1002.5 hPa | 0 mm | - | 284 W/m² | - |
| 1777666735 | 14.44° C | 52% | 1002.3 hPa | 0 mm | - | 198 W/m² | - |
| 1777666431 | 14.44° C | 55% | 1002.5 hPa | 0 mm | - | 204 W/m² | - |
| 1777666128 | 14.44° C | 54% | 1002.5 hPa | 0 mm | - | 180 W/m² | - |
| 1777665825 | 14.44° C | 53% | 1002.3 hPa | 0 mm | - | 199 W/m² | - |
| 1777665523 | 14.44° C | 54% | 1002.5 hPa | 0 mm | - | 235 W/m² | - |
| 1777665218 | 14.44° C | 53% | 1002.3 hPa | 0 mm | - | 219 W/m² | - |
| 1777664915 | 14.44° C | 55% | 1002.4 hPa | 0 mm | - | 231 W/m² | - |
* Rain latest hour (hover to see other rain measurements)
** Current wind speed in m/s (hover to see current wind gust speed)